Regional Weather Roundup
Issued by NWS

Home | Current Version | Previous Version | Graphics & Text | Print | Product List | Glossary On
Versions: 1 2 3 4 5 6 7 8 9 10 11 12 13 14 15 16 17 18 19 20 21 22 23 24 25 26 27
000
ASUS45 KCYS 191810
RWRWY

WYOMING REGIONAL WEATHER ROUNDUP
NATIONAL WEATHER SERVICE CHEYENNE WY
1200 PM MDT WED JUL 19 2017

NOTE:  "FAIR" INDICATES FEW OR NO CLOUDS BELOW 12,000 FEET
WITH NO SIGNIFICANT WEATHER AND/OR OBSTRUCTIONS TO VISIBILITY.

WYZ001-191900-
YELLOWSTONE NATIONAL PARK

CITY           SKY/WX    TMP DP  RH WIND       PRES   REMARKS
LK YELLOWSTONE   N/A     70  46  42 CALM      30.36F
6HR MIN TEMP:  47; 6HR MAX TEMP:  71;

W YELLOWSTONE  NOT AVBL

$$
WYZ002>013-054>058-071-098>099-191900-
NORTHERN WYOMING

CITY           SKY/WX    TMP DP  RH WIND       PRES   REMARKS
JACKSON        NOT AVBL
CODY           FAIR      77  46  33 N12       30.17F
GREYBULL       FAIR      88  40  18 NW13      30.05F
6HR MIN TEMP:  67; 6HR MAX TEMP:  88;

WORLAND        FAIR      86  46  24 NW9       30.08F
6HR MIN TEMP:  58; 6HR MAX TEMP:  86;

SHERIDAN       FAIR      83  50  31 N10G17    30.11S
6HR MIN TEMP:  60; 6HR MAX TEMP:  84;

BUFFALO        FAIR      79  48  33 N21G26    30.17R
6HR MIN TEMP:  68; 6HR MAX TEMP:  85;

GILLETTE       FAIR      86  49  27 N16       30.10R
6HR MIN TEMP:  68; 6HR MAX TEMP:  86;

HULETT         FAIR      86  52  30 N16G22    30.09S
NEWCASTLE      FAIR      91  48  22 NW10G23   30.05S

$$
WYZ014>020-022>026-101>103-191900-
CENTRAL WYOMING

CITY           SKY/WX    TMP DP  RH WIND       PRES   REMARKS
BIG PINEY      FAIR      77  47  34 SW7       30.30F
6HR MIN TEMP:  51; 6HR MAX TEMP:  77;

PINEDALE       FAIR      79  43  27 W9        30.32S
DUBOIS         FAIR      81  32  17 NW15G23   30.27F
LANDER         NOT AVBL
RIVERTON       FAIR      81  45  28 NE9       30.16F
6HR MIN TEMP:  61; 6HR MAX TEMP:  81;

CASPER         FAIR      91  40  16 SW13      30.13F
6HR MIN TEMP:  66; 6HR MAX TEMP:  91;

DOUGLAS        FAIR      96  43  16 NW24G30   30.11F HX  92
6HR MIN TEMP:  63; 6HR MAX TEMP:  97;


$$
WYZ021-027>030-104>119-191900-
SOUTHERN WYOMING

CITY           SKY/WX    TMP DP  RH WIND       PRES   REMARKS
EVANSTON       PTSUNNY   73  54  51 SW8       30.32R
6HR MIN TEMP:  64; 6HR MAX TEMP:  73;

KEMMERER         N/A     79  45  29 S6        30.33S
FORT BRIDGER   MOCLDY    81  47  30 W7        30.33S
ROCK SPRINGS   FAIR      84  41  21 SE6       30.28F
6HR MIN TEMP:  60; 6HR MAX TEMP:  84;

RAWLINS        FAIR      85  43  22 W13G23    30.29S
6HR MIN TEMP:  57; 6HR MAX TEMP:  86;

SARATOGA       MOCLDY    82  45  26 NW16G22   30.31F
LARAMIE        FAIR      88  36  15 NW17      30.30F
6HR MIN TEMP:  57; 6HR MAX TEMP:  90;

CHEYENNE       FAIR      97  38  13 W12       30.20F HX  92
6HR MIN TEMP:  63; 6HR MAX TEMP:  97;

TORRINGTON     FAIR      95  47  19 S5        30.03F HX  91
6HR MIN TEMP:  66; 6HR MAX TEMP:  95;

PINE BLUFFS    FAIR      91  50  24 SW9       30.14F

$$




USA.gov is the U.S. government's official web portal to all federal, state and local government web resources and services.